Weather History for Grayling, MI

Change the Weather History Date:

Thursday, December 5, 2013

  Actual Average (KHTL) Record (KHTL)
Temperature  
Mean Temperature 34 °F 27 °F  
Max Temperature 47 °F 34 °F 64 °F (2001)
Min Temperature 19 °F 21 °F -2 °F (1964)
Degree Days  
Heating Degree Days 32 38  
Month to date heating degree days 185  
Since 1 July heating degree days 2068  
Moisture  
Dew Point 25 °F    
Average Humidity 73    
Maximum Humidity 100    
Minimum Humidity 55    
Precipitation  
Precipitation 0.00 in 0.06 in 0.92 in (1982)
Month to date precipitation 0.32  
Year to date precipitation 27.42  
Snow  
Snow 0.00 in 0.50 in 6.00 in (1947)
Month to date snowfall 2.5  
Since 1 July snowfall 11.6  
Snow Depth -    
Sea Level Pressure  
Sea Level Pressure 29.74 in    
Wind  
Wind Speed 12 mph (WSW)    
Max Wind Speed 24 mph    
Max Gust Speed 36 mph    
Visibility 9 miles    
Events Snow    
T = Trace of Precipitation, MM = Missing Value Source: NWS Daily Summary

Daily Weather History Graph

Daily Weather History Graph

Search for Another Location

Airport:

Trip Planner

Search our weather history database for the weather conditions in past years. The results will help you decide how hot, cold, wet, or windy it might be!

Date:

Astronomy

Dec. 05, 2013 Rise Set
Actual Time 8:00 AM EST 4:58 PM EST
Civil Twilight 7:27 AM EST 5:31 PM EST
Nautical Twilight 6:50 AM EST 6:08 PM EST
Astronomical Twilight 6:15 AM EST 6:43 PM EST
Moon 10:16 AM EST (12/5) 8:22 PM EST (12/5)
Length of Visible Light 10h 04m
Length of Day
8h 58m
Waxing Crescent, 10% of the Moon is Illuminated
Dec 5
Waxing Crescent
Dec 9
First Quarter
Dec 17
Full
Dec 25
Last Quarter
Jan 1
New

Hourly Weather History & Observations

Time (EST) Temp. Windchill Dew Point Humidity Pressure Visibility Wind Dir Wind Speed Gust Speed Precip Events Conditions
12:15 AM 47.7 °F - 47.7 °F 100% 29.47 in 3.0 mi South 6.9 mph - N/A   Overcast
12:35 AM 47.7 °F - 47.7 °F 100% 29.46 in 2.5 mi South 8.1 mph - N/A   Overcast
12:55 AM 47.7 °F - 47.7 °F 100% 29.47 in 3.0 mi SSW 6.9 mph - N/A   Overcast
1:15 AM 47.7 °F - 47.7 °F 100% 29.47 in 3.0 mi SSW 8.1 mph - N/A   Overcast
1:35 AM 47.7 °F - 47.3 °F 99% 29.46 in 5.0 mi SSW 11.5 mph 17.3 mph N/A   Overcast
1:55 AM 47.7 °F - 46.4 °F 95% 29.46 in 5.0 mi SSW 9.2 mph 17.3 mph N/A   Overcast
2:15 AM 47.7 °F - 46.4 °F 95% 29.46 in 5.0 mi SSW 10.4 mph 16.1 mph N/A   Overcast
2:35 AM 47.7 °F - 45.5 °F 92% 29.48 in 7.0 mi SW 13.8 mph 23.0 mph N/A   Overcast
2:55 AM 47.7 °F - 44.4 °F 89% 29.48 in 7.0 mi SW 9.2 mph - N/A   Overcast
3:15 AM 47.7 °F - 42.1 °F 81% 29.48 in 10.0 mi SW 17.3 mph 24.2 mph N/A   Overcast
3:35 AM 47.7 °F - 40.6 °F 77% 29.49 in 10.0 mi SW 19.6 mph 28.8 mph N/A   Overcast
3:55 AM 45.9 °F 40.4 °F 39.6 °F 79% 29.50 in 10.0 mi WSW 11.5 mph 20.7 mph N/A   Overcast
4:15 AM 43.9 °F 37.5 °F 38.1 °F 80% 29.51 in 10.0 mi WSW 12.7 mph 21.9 mph N/A   Overcast
4:35 AM 41.5 °F 33.8 °F 36.9 °F 83% 29.51 in 10.0 mi WSW 15.0 mph 19.6 mph N/A   Overcast
4:55 AM 39.7 °F 33.2 °F 35.4 °F 85% 29.54 in 10.0 mi WSW 10.4 mph 25.3 mph N/A   Overcast
5:15 AM 38.8 °F 31.6 °F 34.2 °F 83% 29.53 in 10.0 mi WSW 11.5 mph 19.6 mph N/A   Mostly Cloudy
5:35 AM 38.8 °F 31.2 °F 34.2 °F 83% 29.53 in 10.0 mi SW 12.7 mph 18.4 mph N/A   Mostly Cloudy
5:55 AM 37.6 °F 30.5 °F 33.1 °F 84% 29.54 in 10.0 mi SW 10.4 mph 19.6 mph N/A   Overcast
6:15 AM 37.6 °F 30.5 °F 32.4 °F 81% 29.56 in 10.0 mi WSW 10.4 mph 17.3 mph N/A   Overcast
6:35 AM 37.6 °F 28.8 °F 32.5 °F 82% 29.58 in 10.0 mi SW 15.0 mph 19.6 mph N/A   Overcast
6:55 AM 37.6 °F 29.6 °F 33.1 °F 84% 29.60 in 10.0 mi WSW 12.7 mph 18.4 mph N/A   Overcast
7:15 AM 35.6 °F 25.5 °F 30.4 °F 81% 29.61 in 10.0 mi WSW 17.3 mph 27.6 mph N/A   Overcast
7:35 AM 35.2 °F 26.2 °F 30.0 °F 81% 29.60 in 10.0 mi WSW 13.8 mph 18.4 mph N/A   Overcast
7:55 AM 35.2 °F 27.6 °F 30.2 °F 82% 29.60 in 10.0 mi WSW 10.4 mph 23.0 mph N/A   Overcast
8:15 AM 35.2 °F 25.0 °F 30.7 °F 84% 29.62 in 10.0 mi WSW 17.3 mph 24.2 mph N/A   Overcast
8:35 AM 34.7 °F 25.9 °F 29.7 °F 82% 29.62 in 10.0 mi WSW 12.7 mph 25.3 mph N/A   Overcast
8:55 AM 33.3 °F 22.8 °F 26.8 °F 77% 29.63 in 10.0 mi WSW 16.1 mph 28.8 mph N/A   Scattered Clouds
9:15 AM 33.4 °F 24.3 °F 27.1 °F 78% 29.65 in 10.0 mi SW 12.7 mph 19.6 mph N/A   Mostly Cloudy
9:35 AM 32.9 °F 22.4 °F 26.2 °F 76% 29.66 in 10.0 mi WSW 16.1 mph 24.2 mph N/A   Overcast
9:55 AM 32.9 °F 22.8 °F 26.1 °F 76% 29.67 in 10.0 mi WSW 15.0 mph 24.2 mph N/A   Overcast
10:15 AM 33.1 °F 24.4 °F 26.6 °F 77% 29.67 in 10.0 mi WSW 11.5 mph 19.6 mph N/A   Mostly Cloudy
10:35 AM 34.0 °F 24.2 °F 26.2 °F 73% 29.68 in 10.0 mi WSW 15.0 mph 21.9 mph N/A   Mostly Cloudy
10:55 AM 33.4 °F 22.3 °F 24.3 °F 69% 29.70 in 10.0 mi WSW 18.4 mph 29.9 mph N/A   Mostly Cloudy
11:15 AM 32.9 °F 23.2 °F 23.4 °F 68% 29.71 in 10.0 mi WSW 13.8 mph 26.5 mph N/A   Mostly Cloudy
11:34 AM 32.9 °F 20.4 °F 22.5 °F 65% 29.72 in 10.0 mi WSW 23.0 mph 28.8 mph N/A   Scattered Clouds
11:55 AM 32.9 °F 21.0 °F 22.5 °F 65% 29.72 in 10.0 mi West 20.7 mph 35.7 mph N/A   Clear
12:15 PM 32.9 °F 20.1 °F 21.9 °F 64% 29.72 in 10.0 mi WSW 24.2 mph 35.7 mph N/A   Scattered Clouds
12:34 PM 32.7 °F 20.1 °F 20.5 °F 61% 29.74 in 10.0 mi WSW 23.0 mph 32.2 mph N/A   Scattered Clouds
12:55 PM 30.6 °F 19.8 °F 18.3 °F 60% 29.75 in 10.0 mi West 15.0 mph 32.2 mph N/A   Clear
1:15 PM 30.2 °F 18.5 °F 17.6 °F 60% 29.76 in 10.0 mi West 17.3 mph 29.9 mph N/A   Clear
1:34 PM 30.6 °F 19.8 °F 17.4 °F 58% 29.76 in 10.0 mi West 15.0 mph 24.2 mph N/A   Scattered Clouds
1:55 PM 29.3 °F 17.0 °F 15.8 °F 57% 29.77 in 10.0 mi WSW 18.4 mph 27.6 mph N/A   Clear
2:15 PM 30.6 °F 19.8 °F 17.1 °F 57% 29.78 in 10.0 mi WSW 15.0 mph 23.0 mph N/A   Scattered Clouds
2:34 PM 30.6 °F 18.6 °F 16.3 °F 56% 29.80 in 10.0 mi West 18.4 mph 25.3 mph N/A   Scattered Clouds
2:55 PM 30.6 °F 20.7 °F 16.0 °F 55% 29.80 in 10.0 mi West 12.7 mph 28.8 mph N/A   Clear
3:15 PM 29.5 °F 18.0 °F 14.9 °F 55% 29.81 in 10.0 mi West 16.1 mph 24.2 mph N/A   Clear
3:34 PM 28.0 °F 17.0 °F 15.3 °F 59% 29.83 in 10.0 mi WSW 13.8 mph 25.3 mph N/A   Clear
3:55 PM 28.0 °F 16.5 °F 15.4 °F 59% 29.85 in 10.0 mi WSW 15.0 mph 19.6 mph N/A   Clear
4:15 PM 28.0 °F 16.5 °F 15.8 °F 60% 29.87 in 10.0 mi West 15.0 mph 20.7 mph N/A   Clear
4:35 PM 28.0 °F 17.0 °F 16.7 °F 62% 29.88 in 10.0 mi WSW 13.8 mph 21.9 mph N/A   Clear
4:55 PM 25.5 °F 13.8 °F 14.7 °F 64% 29.89 in 10.0 mi WSW 13.8 mph 25.3 mph N/A   Scattered Clouds
5:15 PM 25.0 °F 12.6 °F 14.7 °F 65% 29.89 in 10.0 mi West 15.0 mph 20.7 mph N/A   Clear
5:35 PM 24.6 °F 13.2 °F 15.1 °F 67% 29.89 in 10.0 mi WSW 12.7 mph 19.6 mph N/A   Scattered Clouds
5:55 PM 23.9 °F 13.5 °F 14.5 °F 67% 29.90 in 10.0 mi West 10.4 mph 17.3 mph N/A   Clear
6:14 PM 23.0 °F 12.4 °F 14.0 °F 68% 29.91 in 10.0 mi WSW 10.4 mph 19.6 mph N/A   Scattered Clouds
6:35 PM 23.5 °F 13.0 °F 14.5 °F 69% 29.92 in 10.0 mi WSW 10.4 mph 17.3 mph N/A   Mostly Cloudy
6:55 PM 24.3 °F 13.9 °F 15.6 °F 70% 29.93 in 10.0 mi West 10.4 mph 16.1 mph N/A   Overcast
7:15 PM 23.2 °F 9.8 °F 14.0 °F 68% 29.95 in 10.0 mi WSW 16.1 mph 23.0 mph N/A   Overcast
7:35 PM 23.0 °F 11.1 °F 13.6 °F 67% 29.96 in 10.0 mi West 12.7 mph 19.6 mph N/A   Overcast
7:55 PM 23.0 °F 10.1 °F 13.3 °F 66% 29.98 in 10.0 mi West 15.0 mph 24.2 mph N/A   Overcast
8:15 PM 23.0 °F 9.2 °F 13.5 °F 67% 29.99 in 10.0 mi West 17.3 mph 23.0 mph N/A   Overcast
8:35 PM 23.0 °F 10.1 °F 13.1 °F 66% 30.00 in 10.0 mi WSW 15.0 mph 25.3 mph N/A   Overcast
8:55 PM 22.6 °F 10.1 °F 13.1 °F 67% 30.01 in 10.0 mi West 13.8 mph 31.1 mph N/A   Overcast
9:15 PM 21.6 °F 7.8 °F 12.0 °F 67% 30.01 in 10.0 mi West 16.1 mph 21.9 mph N/A   Overcast
9:35 PM 21.9 °F 8.7 °F 12.0 °F 66% 30.02 in 10.0 mi WSW 15.0 mph 23.0 mph N/A   Overcast
9:55 PM 21.7 °F 10.8 °F 12.2 °F 67% 30.02 in 10.0 mi West 10.4 mph 21.9 mph N/A   Overcast
10:15 PM 21.7 °F 12.3 °F 12.2 °F 67% 30.03 in 10.0 mi West 8.1 mph 20.7 mph N/A   Overcast
10:35 PM 21.2 °F 8.9 °F 11.7 °F 67% 30.03 in 10.0 mi West 12.7 mph 23.0 mph N/A   Overcast
10:55 PM 21.0 °F 7.1 °F 11.3 °F 66% 30.04 in 10.0 mi West 16.1 mph 24.2 mph N/A Snow Light Snow
11:15 PM 20.8 °F 10.4 °F 11.7 °F 68% 30.05 in 10.0 mi West 9.2 mph 16.1 mph N/A Snow Light Snow
11:35 PM 20.7 °F 9.5 °F 11.8 °F 69% 30.05 in 10.0 mi West 10.4 mph 20.7 mph N/A Snow Light Snow
11:55 PM 19.8 °F 5.9 °F 10.0 °F 66% 30.05 in 10.0 mi West 15.0 mph 24.2 mph N/A   Overcast